Location: Almena City Lake
(39.8850°N, 99.6804°W)
Time: 10:01:25
(UTC+00:00)

STARLINK-24 - Pass Details

Date: 18 February 2020
Orbit: 527 x 529 km, 53.0° (Epoch: 04 April)

Event Time Altitude Azimuth Distance (km) Brightness Sun altitude
Rises 01:17:37 0° 218° (SW) 2,647 7.8 -12.3°
Reaches altitude 10° 01:19:50 10° 214° (SSW) 1,762 6.7 -12.7°
Maximum altitude 01:23:45 56° 136° (SE) 632 3.7 -13.5°
Enters shadow 01:26:08 22° 65° (ENE) 1,185 4.8 -13.9°
